Wind_Speed
32 32 30 31 36 39 35 28 28 28 30 32 28 22 22 19 27 21 22 23 18 28 24 25 26 24 21 20 18 15 13 12 11 10 9 7 5 4 4 5 1 1 2 2 3 4 9 12 16
33 34 35 33 37 37 42 34 32 32 30 30 29 29 33 35 28 21 18 13 12 26 26 26 26 28 26 23 20 18 16 14 14 11 10 11 9 6 5 6 4 4 3 3 6 9 9 11 13
33 35 37 35 38 43 44 44 35 38 34 33 27 33 34 32 27 23 24 20 16 15 25 23 23 22 26 26 23 21 20 20 18 15 14 12 11 10 10 9 8 7 9 10 10 11 13 14 16
32 36 36 38 39 43 44 46 35 41 40 36 33 32 37 34 32 29 29 25 21 15 20 25 26 24 24 26 27 25 25 24 23 23 21 20 17 16 16 16 15 14 14 14 15 17 18 20 21
31 32 37 39 41 41 45 46 41 42 42 42 36 37 35 37 37 34 33 28 27 23 22 21 27 27 26 27 28 28 28 28 27 25 24 24 24 22 20 20 20 19 21 22 22 21 21 22 22
37 35 35 37 41 44 44 49 48 42 49 44 41 41 38 36 37 38 35 35 31 30 26 22 28 29 29 29 28 28 28 29 30 30 29 28 27 27 26 25 24 23 23 24 25 24 24 23 23
36 38 38 37 41 43 47 48 52 50 51 46 46 47 45 43 42 42 38 40 39 35 32 22 19 22 27 29 30 28 28 27 28 29 30 30 29 29 29 29 28 26 25 25 26 27 27 25 24
38 37 39 38 37 45 45 51 52 55 50 56 50 42 31 48 47 47 43 42 43 38 36 29 29 27 29 33 32 32 30 30 30 30 28 28 28 28 31 31 31 31 31 30 29 28 29 27 25
41 39 40 40 38 39 46 49 55 57 58 55 56 46 48 38 56 51 48 48 44 43 44 38 26 33 33 33 34 36 34 33 34 33 30 29 28 29 30 31 32 33 35 35 34 32 31 29 28
44 44 44 44 42 41 45 49 51 58 61 60 59 58 55 57 57 56 51 50 50 47 47 48 40 38 35 38 37 36 36 37 37 37 35 32 32 31 31 32 33 34 33 34 35 35 34 33 32
49 49 49 48 47 45 43 46 51 55 59 64 62 59 62 52 54 57 57 53 54 53 50 48 48 44 45 41 39 38 42 42 40 40 37 36 36 34 33 33 33 34 34 34 33 34 35 33 33
48 50 53 53 52 51 49 49 50 52 58 61 62 66 64 65 60 54 61 58 55 56 55 53 53 52 46 49 46 42 36 41 42 40 38 36 34 33 30 29 28 30 32 32 33 33 34 33 32
42 44 49 52 56 56 56 55 55 54 54 56 60 66 71 69 68 66 57 62 62 61 60 58 58 57 52 52 49 49 42 38 39 40 38 40 38 35 34 30 27 29 30 31 32 32 33 35 34
36 37 42 47 50 54 56 59 59 58 58 57 59 64 66 75 75 72 73 66 62 64 64 62 61 60 59 57 55 53 49 44 43 41 39 39 38 38 37 38 38 36 35 35 34 32 31 26 26
37 35 35 38 40 46 52 56 57 58 60 61 63 64 65 68 77 79 77 74 71 66 67 66 64 65 63 60 57 56 54 55 51 47 46 45 46 45 41 41 41 40 38 38 36 32 27 26 26
43 40 36 35 33 38 45 53 57 56 56 60 61 66 66 68 73 73 78 82 80 77 70 70 69 70 68 66 64 61 57 55 58 55 51 49 48 47 47 47 46 45 42 39 36 35 34 29 29
49 46 44 40 39 36 39 42 45 48 52 54 58 60 67 68 70 72 74 79 83 83 82 79 73 73 72 69 67 65 62 60 60 58 56 55 52 52 53 51 46 45 43 42 41 38 37 32 32
59 53 50 51 47 45 45 46 44 42 46 47 53 54 60 63 65 75 74 76 79 81 83 83 84 81 76 73 72 71 68 67 66 64 63 60 58 55 52 48 47 48 46 43 42 43 42 37 36
62 57 59 59 56 51 52 51 50 46 46 48 47 50 51 54 60 63 72 71 79 80 82 82 82 86 87 81 79 77 73 72 72 69 68 65 61 55 53 51 51 50 48 49 45 42 38 36 34
64 60 62 64 62 58 61 57 58 57 52 52 51 49 52 52 51 56 59 67 70 75 83 82 81 82 85 88 88 85 80 79 77 75 73 69 63 60 58 55 53 55 51 49 46 48 46 43 40
69 68 68 67 68 64 68 65 63 66 62 58 57 54 52 52 53 55 55 58 61 67 75 80 85 85 84 84 84 86 88 86 83 85 77 76 72 68 66 61 60 62 58 58 57 55 54 54 53
67 72 72 72 71 67 72 68 68 75 69 68 64 61 59 58 55 53 55 56 59 62 64 67 76 83 85 86 87 86 85 84 89 89 85 83 81 77 74 71 68 66 63 62 61 62 62 61 58
66 69 70 74 75 76 73 71 75 78 74 72 72 69 67 66 62 60 57 57 57 59 62 62 65 69 77 80 87 87 90 90 87 86 87 88 89 87 81 74 71 70 66 57 60 63 67 65 64
71 72 75 72 77 77 72 79 77 90 76 73 70 75 75 74 72 69 66 65 63 62 62 62 64 66 68 73 79 84 85 89 88 88 89 89 88 91 88 86 79 75 78 74 72 72 73 74 71
80 78 78 78 77 70 77 84 80 88 86 73 71 79 78 78 78 75 72 71 70 68 66 65 64 64 67 70 70 73 79 87 90 90 91 89 88 90 90 90 89 92 88 83 84 81 81 80 75
88 85 81 81 79 76 81 81 92 84 86 79 78 82 86 84 80 79 78 77 76 74 73 70 68 68 66 66 68 71 73 77 79 84 91 92 95 94 90 92 96 97 95 96 92 89 84 82 80
94 93 89 88 81 83 81 85 83 81 83 85 85 85 87 88 87 84 82 82 82 80 78 76 74 72 71 69 69 69 71 73 75 79 80 81 87 93 94 97 95 98 99 101 101 98 93 89 88
95 97 94 93 92 89 86 87 89 89 80 86 86 86 86 91 91 88 87 84 85 85 81 80 80 78 76 75 73 72 70 69 69 71 77 80 83 81 82 92 96 99 98 99 98 97 94 94 97
92 94 96 98 97 94 92 93 95 93 86 97 86 88 86 87 88 88 89 87 88 87 85 83 83 82 83 82 81 79 76 75 75 74 72 72 76 78 82 85 87 94 101 101 100 96 96 94 96
81 89 95 97 95 98 99 96 101 99 97 101 96 93 89 88 89 88 88 87 88 89 89 88 90 90 87 88 88 87 84 82 79 78 77 76 74 74 74 82 87 88 87 91 99 101 100 97 98
Wind_Direction
206 206 203 206 202 193 191 188 209 198 193 190 195 198 191 217 205 212 214 215 238 196 199 197 202 199 196 199 205 208 217 225 215 213 215 216 226 266 337 347 13 94 141 106 65 25 17 16 17
209 206 205 207 206 205 192 182 205 213 202 198 199 197 182 197 202 194 193 203 207 209 201 201 203 208 205 204 207 215 217 225 220 224 233 225 228 246 290 313 313 242 264 275 294 310 330 344 356
217 208 209 209 208 210 199 205 197 215 216 210 212 206 194 194 201 201 204 202 206 205 205 206 207 213 215 215 214 219 224 224 229 237 231 233 240 254 270 285 293 289 272 286 294 301 310 321 332
227 216 210 215 215 212 213 219 193 210 219 222 219 215 211 206 204 211 212 211 212 201 211 204 206 204 210 217 223 227 232 233 233 238 242 246 246 255 264 274 279 285 286 288 293 296 302 313 321
236 229 217 214 220 218 217 224 211 207 216 222 223 220 220 216 215 213 215 213 214 212 217 230 215 209 211 216 220 224 233 239 239 240 243 249 250 251 257 264 273 280 286 289 292 296 303 310 316
230 230 226 220 220 222 223 224 225 210 213 227 222 223 225 221 218 213 220 218 220 218 216 243 231 222 218 216 223 225 229 235 242 245 246 247 252 256 257 259 266 272 279 285 290 295 299 305 309
238 236 232 221 221 223 224 226 227 229 211 220 231 226 229 230 226 225 221 222 223 220 221 235 242 250 236 230 226 228 233 237 242 245 249 252 253 257 262 266 269 270 272 276 281 288 292 297 302
240 237 238 235 221 219 222 228 231 233 231 212 222 230 246 235 230 228 228 231 225 224 225 219 259 251 252 245 242 235 234 237 239 244 248 254 261 266 269 272 274 274 274 275 276 279 285 291 296
242 242 241 236 230 223 224 226 228 232 235 232 224 213 217 232 230 229 228 228 232 235 234 222 235 249 245 252 248 240 242 239 244 245 243 251 257 261 269 274 275 277 280 282 282 281 283 289 296
240 240 240 239 234 227 228 228 228 232 234 236 236 223 216 223 228 229 231 229 230 236 234 233 229 235 241 248 251 253 250 248 247 249 248 247 250 257 263 268 273 277 280 284 287 288 289 292 293
241 239 239 239 238 233 229 232 231 232 235 236 237 237 241 238 223 226 227 228 229 232 236 234 238 239 236 238 247 250 250 248 247 251 250 251 252 253 259 267 273 277 280 282 286 288 290 292 293
243 240 239 238 239 239 235 233 232 234 236 237 238 239 240 244 228 222 225 229 228 228 235 241 242 245 244 236 241 248 252 249 250 251 253 256 253 253 257 264 273 281 285 288 288 288 291 291 292
249 244 239 239 237 238 238 237 235 233 234 236 237 236 238 238 243 243 232 229 229 233 233 241 243 245 242 240 247 247 245 247 250 251 253 256 255 258 265 263 272 280 281 290 293 295 295 290 290
252 251 246 241 239 237 238 239 238 236 236 235 236 236 236 237 238 241 244 237 233 233 233 234 237 242 243 244 244 246 246 247 247 248 251 257 259 260 266 269 271 273 279 286 288 291 300 295 295
250 252 253 251 245 242 239 238 238 237 238 237 236 238 236 235 237 238 240 246 244 237 235 236 238 241 243 248 249 249 252 247 246 251 252 253 255 257 263 267 267 267 273 277 283 287 294 297 303
245 248 249 247 248 249 247 243 238 237 239 239 238 237 238 236 237 237 239 240 244 246 239 239 242 238 238 243 245 246 249 249 249 252 255 255 257 259 265 268 270 267 269 276 274 279 283 283 284
249 245 246 246 249 245 249 252 246 246 242 242 241 239 238 238 237 239 238 238 241 244 247 245 239 242 244 244 246 247 246 247 249 250 254 258 257 259 263 267 266 267 268 269 270 272 277 279 281
249 249 247 244 242 246 248 252 252 250 250 245 244 246 241 239 236 239 240 240 239 239 243 246 248 244 240 242 246 246 244 245 249 253 254 256 257 259 260 260 262 262 262 266 267 273 276 276 277
251 250 249 244 244 243 245 248 250 248 250 253 251 253 251 247 240 237 239 242 242 242 242 241 246 249 251 245 242 242 243 247 249 250 252 255 255 256 258 257 260 261 266 264 268 273 273 274 274
252 248 250 249 245 240 247 243 245 246 243 247 252 252 252 252 252 250 244 240 242 242 242 244 244 245 248 251 250 248 245 246 248 250 250 252 251 254 257 253 258 261 261 261 261 265 268 273 274
249 249 248 248 247 246 248 246 244 245 244 242 244 242 244 248 251 253 254 252 245 244 242 243 245 245 246 246 249 251 251 250 247 247 248 250 249 249 251 253 254 256 259 260 263 262 264 271 273
251 249 247 248 250 245 247 248 247 246 243 242 242 241 241 244 245 248 251 252 253 252 246 245 244 245 246 248 247 246 248 251 252 252 250 248 250 249 249 254 253 255 259 264 265 263 265 269 272
254 253 249 249 247 247 246 247 250 247 245 245 246 244 242 243 245 245 247 248 248 251 252 250 247 245 246 248 248 248 249 246 247 250 252 251 251 248 248 250 253 255 256 256 260 262 266 270 271
253 250 249 247 248 246 248 247 245 252 241 242 249 251 248 244 244 245 245 247 248 248 248 251 252 248 245 246 247 246 249 248 249 252 251 250 249 250 250 249 249 251 251 250 253 257 260 265 268
252 250 250 249 249 250 248 248 248 248 251 243 242 250 250 249 247 246 246 245 248 249 250 249 249 251 251 250 248 248 249 248 248 249 249 250 253 253 252 252 252 251 252 252 253 257 259 263 267
248 249 247 249 248 247 246 250 249 249 252 249 244 245 250 250 249 248 248 248 247 249 251 251 252 250 251 253 253 253 250 247 248 251 249 251 251 249 248 250 250 250 253 254 254 255 257 259 264
246 246 246 247 248 248 247 249 251 251 250 250 247 244 246 250 249 249 248 248 247 249 250 251 252 252 253 252 251 252 254 253 249 249 250 250 252 251 252 252 252 251 250 252 255 257 256 257 260
245 245 246 245 245 247 248 250 250 250 250 252 250 249 246 248 249 249 249 249 247 247 248 250 251 251 251 252 252 252 251 253 254 254 255 252 251 251 251 251 251 252 253 253 252 254 255 258 259
244 244 244 244 244 246 247 248 251 252 250 252 250 251 250 250 250 249 249 250 250 248 248 247 250 250 250 250 251 252 253 251 250 250 252 253 256 255 254 252 253 253 251 252 253 253 254 255 257
244 243 244 244 244 244 245 246 248 251 250 251 252 248 252 252 253 252 252 250 249 247 248 248 249 249 250 251 250 250 251 252 252 254 254 253 252 255 254 255 256 255 255 255 253 252 254 254 256
Height
10947 10952 10956 10958 10962 10965 10969 10972 10975 10977 10979 10981 10984 10988 10995 10989 10995 10994 10993 10994 10996 10995 10997 10999 11001 11003 11005 11007 11009 11011 11013 11014 11014 11013 11014 11015 11015 11015 11015 11015 11014 11013 11012 11011 11010 11010 11009 11007 11006
10944 10948 10952 10955 10958 10961 10964 10967 10971 10975 10977 10979 10982 10987 10991 10988 10993 10990 10991 10992 10994 10994 10995 10997 10998 11000 11002 11004 11006 11009 11011 11013 11014 11014 11014 11014 11014 11015 11015 11014 11014 11013 11012 11012 11011 11009 11008 11007 11006
10940 10945 10949 10950 10953 10956 10961 10961 10967 10970 10974 10978 10980 10983 10986 10988 10989 10988 10988 10989 10991 10992 10993 10995 10997 10999 11001 11003 11004 11006 11009 11011 11013 11013 11013 11013 11013 11014 11014 11014 11013 11013 11012 11011 11011 11009 11008 11007 11005
10936 10940 10945 10948 10950 10952 10956 10956 10961 10965 10969 10973 10976 10979 10981 10982 10983 10984 10986 10987 10988 10990 10992 10993 10994 10996 10998 11000 11002 11004 11006 11008 11010 11011 11012 11012 11012 11012 11012 11012 11012 11011 11010 11010 11009 11008 11007 11006 11005
10929 10935 10939 10944 10946 10950 10951 10950 10955 10960 10963 10966 10971 10975 10977 10979 10980 10981 10983 10984 10985 10987 10989 10991 10992 10993 10995 10996 10998 11000 11002 11004 11006 11008 11009 11010 11009 11009 11009 11010 11010 11009 11008 11007 11007 11007 11006 11005 11003
10922 10927 10932 10939 10942 10944 10947 10948 10950 10956 10958 10961 10967 10969 10972 10975 10976 10977 10979 10981 10982 10984 10985 10987 10989 10989 10990 10992 10995 10996 10998 10999 11001 11003 11005 11006 11006 11005 11006 11007 11007 11007 11006 11005 11003 11003 11003 11004 11002
10917 10920 10924 10930 10936 10940 10943 10944 10944 10948 10952 10957 10958 10964 10970 10973 10972 10973 10975 10977 10977 10980 10982 10982 10985 10987 10988 10989 10989 10991 10993 10995 10997 10998 10999 11001 11002 11002 11001 11002 11004 11004 11003 11003 11003 11001 10999 11000 11000
10910 10913 10916 10923 10929 10933 10937 10937 10939 10939 10943 10946 10952 10964 10975 10965 10969 10967 10970 10972 10974 10977 10978 10979 10980 10981 10983 10983 10984 10986 10988 10990 10991 10993 10995 10996 10997 10998 10998 10998 10999 10999 11000 11000 11001 11000 10998 10998 10997
10902 10907 10909 10914 10921 10929 10928 10929 10930 10932 10932 10938 10943 10956 10956 10943 10959 10959 10963 10967 10969 10972 10973 10974 10974 10976 10978 10978 10979 10980 10983 10985 10986 10987 10989 10991 10991 10992 10994 10994 10994 10995 10995 10996 10996 10997 10997 10996 10995
10894 10897 10901 10904 10910 10916 10919 10921 10924 10924 10927 10929 10934 10941 10949 10949 10948 10951 10954 10959 10962 10964 10966 10968 10967 10970 10973 10973 10974 10975 10977 10978 10980 10981 10984 10985 10984 10985 10987 10988 10989 10990 10991 10991 10991 10991 10991 10992 10991
10883 10888 10891 10895 10899 10905 10911 10912 10916 10916 10919 10921 10925 10933 10931 10937 10940 10942 10945 10949 10952 10955 10956 10958 10961 10964 10966 10967 10969 10970 10971 10972 10973 10975 10977 10979 10979 10979 10980 10981 10983 10984 10985 10986 10986 10986 10985 10985 10985
10871 10876 10881 10885 10890 10894 10898 10901 10904 10908 10909 10911 10921 10921 10922 10924 10931 10934 10934 10938 10942 10946 10947 10952 10954 10956 10958 10961 10962 10963 10965 10966 10968 10969 10972 10973 10973 10974 10974 10975 10977 10978 10979 10980 10981 10981 10980 10980 10979
10860 10864 10869 10873 10878 10882 10885 10889 10891 10895 10899 10903 10905 10908 10912 10916 10917 10920 10926 10928 10931 10935 10939 10942 10944 10947 10949 10952 10954 10956 10958 10960 10961 10963 10965 10966 10967 10969 10970 10970 10972 10973 10972 10973 10974 10975 10975 10975 10974
10850 10854 10857 10860 10865 10869 10873 10876 10879 10883 10887 10891 10892 10894 10899 10903 10907 10909 10911 10917 10920 10923 10926 10930 10933 10935 10939 10942 10945 10949 10951 10954 10954 10955 10957 10959 10961 10962 10964 10965 10965 10966 10967 10967 10968 10969 10969 10969 10969
10842 10845 10847 10849 10854 10856 10860 10862 10865 10871 10872 10876 10879 10880 10885 10888 10891 10896 10901 10903 10909 10912 10914 10918 10924 10926 10930 10934 10937 10941 10943 10947 10947 10949 10950 10952 10953 10954 10956 10957 10958 10959 10961 10961 10963 10963 10964 10964 10964
10833 10836 10839 10840 10843 10845 10847 10848 10852 10857 10859 10861 10864 10867 10871 10873 10876 10888 10892 10892 10894 10899 10905 10908 10912 10913 10919 10923 10926 10929 10934 10937 10938 10941 10942 10943 10946 10947 10948 10950 10951 10952 10954 10955 10956 10957 10957 10959 10959
10822 10825 10829 10832 10833 10837 10837 10837 10842 10844 10846 10847 10849 10852 10856 10860 10868 10869 10874 10880 10883 10886 10889 10894 10899 10901 10906 10909 10914 10919 10923 10926 10928 10930 10933 10935 10937 10938 10939 10941 10943 10944 10946 10947 10949 10950 10951 10952 10952
10808 10815 10818 10818 10823 10827 10827 10826 10830 10833 10833 10836 10837 10838 10842 10846 10854 10853 10860 10863 10867 10872 10876 10880 10884 10890 10893 10898 10900 10905 10911 10914 10917 10921 10923 10925 10927 10926 10927 10930 10933 10935 10937 10939 10941 10943 10944 10944 10945
10796 10803 10801 10805 10809 10815 10814 10816 10817 10822 10823 10824 10826 10827 10828 10832 10836 10840 10844 10848 10853 10856 10862 10867 10871 10873 10878 10885 10887 10891 10897 10899 10902 10907 10910 10912 10916 10915 10916 10920 10923 10927 10929 10931 10933 10935 10936 10937 10936
10781 10787 10787 10788 10795 10803 10798 10805 10805 10807 10812 10814 10815 10817 10817 10819 10823 10823 10829 10833 10838 10841 10846 10850 10854 10859 10862 10866 10872 10879 10885 10886 10888 10892 10896 10901 10904 10905 10906 10910 10913 10916 10919 10921 10922 10925 10927 10928 10928
10765 10769 10770 10773 10776 10787 10783 10789 10792 10790 10797 10802 10803 10806 10806 10810 10811 10812 10815 10818 10822 10824 10828 10834 10839 10842 10844 10850 10855 10862 10869 10872 10876 10875 10886 10888 10891 10893 10895 10897 10902 10904 10907 10909 10911 10913 10915 10917 10917
10749 10750 10754 10757 10760 10769 10764 10775 10777 10771 10782 10784 10790 10793 10796 10796 10800 10802 10802 10804 10806 10807 10812 10817 10820 10824 10827 10831 10837 10841 10846 10854 10857 10859 10874 10876 10875 10879 10882 10884 10888 10890 10892 10895 10897 10900 10903 10905 10906
10733 10730 10737 10739 10742 10743 10753 10758 10755 10752 10763 10771 10774 10778 10780 10783 10786 10789 10791 10790 10792 10792 10796 10799 10801 10806 10809 10813 10819 10823 10826 10832 10836 10842 10850 10858 10858 10865 10869 10873 10875 10877 10879 10881 10882 10883 10886 10889 10893
10711 10711 10712 10720 10718 10726 10741 10733 10739 10716 10746 10755 10765 10760 10762 10767 10769 10773 10777 10777 10777 10778 10779 10782 10786 10789 10792 10796 10799 10803 10807 10812 10819 10825 10829 10834 10839 10844 10853 10857 10863 10862 10863 10865 10865 10869 10872 10875 10879
10688 10692 10694 10699 10701 10718 10712 10708 10722 10707 10717 10745 10749 10739 10742 10744 10750 10757 10759 10762 10762 10763 10765 10767 10770 10773 10776 10779 10783 10786 10790 10793 10797 10805 10807 10812 10821 10826 10835 10840 10845 10844 10844 10849 10854 10855 10858 10861 10865
10663 10666 10675 10675 10683 10693 10687 10692 10676 10702 10704 10717 10724 10722 10719 10722 10731 10736 10741 10743 10746 10748 10749 10753 10756 10759 10760 10763 10766 10768 10770 10776 10780 10784 10789 10792 10797 10804 10814 10815 10819 10827 10828 10828 10834 10836 10844 10848 10850
10635 10639 10649 10653 10667 10665 10672 10665 10671 10680 10681 10686 10692 10701 10701 10702 10708 10713 10719 10723 10728 10730 10732 10737 10739 10742 10744 10747 10749 10750 10753 10756 10760 10765 10765 10774 10776 10784 10792 10795 10799 10801 10805 10809 10814 10818 10826 10831 10833
10607 10612 10626 10632 10637 10644 10654 10651 10648 10651 10668 10662 10667 10674 10685 10681 10683 10693 10698 10703 10706 10709 10717 10719 10720 10723 10725 10729 10732 10735 10738 10740 10743 10745 10746 10753 10756 10763 10769 10772 10773 10780 10785 10789 10796 10800 10806 10812 10813
10580 10592 10596 10601 10612 10624 10630 10631 10628 10635 10648 10627 10650 10651 10659 10660 10666 10671 10675 10681 10684 10691 10695 10699 10700 10703 10706 10709 10713 10716 10718 10722 10724 10727 10731 10735 10735 10743 10746 10750 10752 10758 10763 10768 10776 10781 10786 10792 10794
10554 10561 10566 10577 10592 10595 10599 10610 10604 10611 10619 10614 10623 10629 10639 10642 10645 10649 10652 10657 10661 10667 10673 10678 10680 10682 10687 10689 10691 10694 10698 10702 10704 10707 10712 10716 10721 10723 10727 10729 10730 10733 10740 10745 10755 10758 10766 10769 10776